#timestamp,LO_Frequency,Hit 
1505170815.5,286046999.5,N
1505170835.3,286046999.4,N
1505170855.2,286046998.3,N
1505170875.9,286046998.8,N
1505170895.7,286046999.2,N
1505170915.6,286046999.6,N
1505170935.4,286046996.2,N
1505170955.2,286046996.9,N
1505170975.1,286047000.5,N
1505170976.0,286047000.5,N
1505170995.8,286047000.8,N
1505171015.6,286046998.1,N
1505171035.5,286047002.8,N
1505171055.3,286047002.4,N
1505171075.1,286047000.7,N
1505171095.8,286047000.6,N
1505171115.7,286046997.5,N
1505171135.5,286046997.4,N
1505171155.3,286047000.7,N
1505171175.2,286046998.4,N
1505171195.9,286046998.5,N
1505171215.7,286046998.2,N
1505171235.6,286047000.1,N
1505171255.4,286046998.6,N
1505171275.2,286046999.4,N
1505171295.1,286046998.0,N
1505171296.0,286046998.0,N
1505171315.8,286046998.9,N
1505171335.6,286046997.7,N
1505171355.5,286046999.6,N
1505171375.3,286046999.3,N
1505171395.1,286046999.4,N
1505171415.8,286046998.8,N
1505171435.7,286046995.3,P
1505171455.5,286046995.0,N
1505171475.4,286046999.6,N
1505171495.2,286046998.3,N
1505171515.0,286047000.8,N
1505171515.9,286047000.8,N
1505171535.7,286047001.0,N
1505171555.6,286047000.8,N
1505171575.4,286046998.5,N
1505171595.2,286047001.2,N
1505171615.1,286047000.4,N
1505171616.0,286047000.4,N
1505171635.8,286046999.3,N
1505171655.6,286046999.4,N
1505171675.5,286046998.2,N
1505171695.3,286047000.6,N
1505171715.1,286046998.7,N
1505171735.9,286047000.7,N
1505171755.7,286047002.4,N
1505171775.5,286047004.4,N
1505171795.4,286047002.9,N
1505171815.2,286047003.9,N
1505171835.0,286047003.5,N
1505171835.9,286047003.5,N
1505171855.8,286047006.6,N
1505171875.6,286047005.7,N
1505171895.4,286047001.7,N
1505171915.2,286046999.8,N
1505171935.1,286047001.1,N
1505171936.0,286047001.1,N
1505171955.8,286046998.6,N
1505171975.6,286047002.4,N
1505171995.5,286047004.2,N
1505172015.3,286047003.9,N
1505172035.1,286047004.3,N
1505172055.9,286047000.6,N
1505172075.7,286046997.8,N
1505172095.5,286046997.6,N
1505172115.4,286046993.4,N
1505172135.2,286046997.6,N
1505172155.0,286046992.5,N
1505172155.9,286046992.5,N
1505172175.8,286046994.9,N
1505172195.6,286046992.0,N
1505172215.4,286046990.6,N
1505172235.3,286046992.5,N
1505172255.1,286046997.6,N
1505172256.0,286046997.6,N
1505172275.8,286046997.0,N
1505172295.7,286046995.9,N
1505172315.5,286046995.4,N
1505172335.3,286046993.5,N
1505172355.1,286046994.9,N
1505172375.9,286046998.4,N
1505172395.7,286046998.6,N
1505172415.5,286047000.9,N
1505172435.4,286047002.4,N
1505172455.2,286046999.3,N
1505172475.0,286046997.8,N
1505172475.9,286046997.8,N
1505172495.8,286046997.6,N
1505172515.6,286046997.8,N
1505172535.4,286046995.7,N
1505172555.3,286046997.5,N
1505172575.1,286047001.0,N
1505172576.0,286047001.0,N
1505172595.8,286047002.0,N
1505172615.7,286047001.7,N
1505172635.5,286047000.2,N
1505172655.3,286047001.1,N
1505172675.2,286047002.8,N
1505172695.9,286047002.2,N
1505172715.7,286046999.8,N
1505172735.5,286047005.9,N
1505172755.4,286047003.8,N
1505172775.2,286047001.8,N
1505172795.0,286047003.3,N
1505172795.9,286047003.3,N
1505172815.8,286047004.5,N
1505172835.6,286047003.7,N
1505172855.4,286047002.9,N
1505172875.3,286047001.4,N
1505172895.1,286047000.8,N
1505172896.0,286047000.8,N
1505172915.8,286047002.5,N
1505172935.7,286047001.9,N
1505172955.5,286047001.1,N
1505172975.3,286047004.2,N
1505172995.2,286047004.3,N
1505173015.9,286047004.9,N
1505173035.7,286047006.4,N
1505173055.6,286047003.2,N
1505173075.4,286047004.4,N
1505173095.2,286047000.3,N
1505173115.0,286047000.7,N
1505173116.0,286047000.7,N
1505173135.8,286047002.3,N
1505173155.6,286047002.0,N
1505173175.4,286046999.9,N
1505173195.3,286047002.2,N
1505173215.1,286046999.0,N
1505173235.8,286047002.8,N
1505173255.7,286047002.1,N
1505173275.5,286047005.7,P
1505173295.3,286047002.6,N
1505173315.2,286047002.8,N
1505173335.9,286047000.5,N
1505173355.7,286046999.2,N
1505173375.6,286046999.4,N
1505173395.4,286047001.8,N
1505173415.2,286047001.7,N
1505173435.1,286046999.8,N
1505173436.0,286046999.8,N
1505173455.8,286047000.1,N
1505173475.6,286047002.5,N
1505173495.5,286047001.6,N
1505173515.3,286047002.1,N
1505173535.1,286047000.5,N
1505173555.8,286046996.9,N
1505173575.7,286046996.9,N
1505173595.5,286047001.5,N
1505173615.3,286047001.8,N
1505173635.2,286047000.1,N
1505173655.9,286046997.4,N
1505173675.7,286046997.1,N
1505173695.6,286046999.6,N
1505173715.4,286046997.7,N
1505173735.2,286046996.7,N
1505173755.1,286046996.6,N
1505173756.0,286046996.6,N
1505173775.8,286046999.3,N
1505173795.6,286047000.8,N
1505173815.4,286046999.4,N
1505173835.3,286046996.6,N
1505173855.1,286046999.6,N
1505173875.8,286046998.9,N
1505173895.7,286047000.5,N
1505173915.5,286046999.0,N
1505173935.3,286046996.7,N
1505173955.2,286047000.9,N
1505173975.9,286047003.9,N
1505173995.7,286046998.3,N
1505174015.6,286047000.5,N
1505174035.4,286047004.3,N
1505174055.2,286047005.4,N
1505174075.1,286047005.0,N
1505174076.0,286047005.0,N
1505174095.8,286047009.2,P
1505174115.6,286047008.9,N
1505174135.5,286047003.1,N
1505174155.3,286047000.8,N
1505174175.1,286046999.9,N
1505174195.9,286047001.3,N
1505174215.7,286047004.4,N
1505174235.5,286046999.8,N
1505174255.4,286047001.3,N
1505174275.2,286047002.1,N
1505174295.0,286047000.5,N
1505174295.9,286047000.5,N
1505174315.8,286047002.1,N
1505174335.6,286047006.0,N
1505174355.4,286047005.9,N
1505174375.2,286047006.9,N
1505174395.1,286047006.1,N
1505174396.0,286047006.1,N
